User: anonymous   Login
Location: Wildcat Hills Observatory
(41.6350°N, 103.6812°W)
Time: 12:00:21
(UTC-07:00)
Language:

Cosmos 1634 Rocket - Orbit

View from above orbital plane
View from above orbital plane
View from above satellite
View from above satellite

Ground track
Ground track

The orbit data is extracted from the following two-line orbital elements,

1 15598U 85022B   16044.79864374 +.00000024 +00000-0 +89737-5 0  9993
2 15598 082.9372 110.8723 0022985 041.2263 093.7232 13.76547939552896
Epoch (UTC): 13 February 2016 19:10:02
Eccentricity: 0.0022985
inclination: 82.9372°
perigee height: 959 km
apogee height: 993 km
right ascension of ascending node: 110.8723°
argument of perigee: 41.2263°
revolutions per day: 13.76547939
mean anomaly at epoch: 93.7232°
orbit number at epoch: 55289

The dashed part of the orbit path shows where the satellite is in the earth's shadow,  

DLR